This demonstration page uses our WeatherBlox Daily Observations layout. Learn more.

39.29038, -76.61219

Hourly Observations for September 4, 2019

Temp ( °F °C ) Dew Point ( °F °C ) Humidity (%) Winds ( mph kmh ) Pressure ( in mb ) Visibility ( mi km ) Precip ( " mm )
12:54 am 00:54 undefined 75 23.9 65 18.3 71 71 undefined N/A 30.01 1016 N/A 0 0
1:54 am 01:54 undefined 73 22.8 67 19.4 81 81 undefined N/A 29.99 1016 N/A 0 0
2:54 am 02:54 undefined 73 22.8 68 20 84 84 undefined N/A 29.99 1016 N/A 0 0
3:54 am 03:54 undefined 72 22.2 67 19.4 84 84 undefined N/A 29.98 1015 N/A 0 0
4:54 am 04:54 undefined 71 21.7 67 19.4 87 87 undefined N/A 29.98 1015 N/A 0 0
5:54 am 05:54 undefined 70 21.1 67 19.4 90 90 undefined N/A 29.99 1016 N/A 0 0
6:54 am 06:54 undefined 71 21.7 68 20 90 90 undefined N/A 29.99 1016 N/A 0 0
7:54 am 07:54 undefined 73 22.8 69 20.6 87 87 undefined N/A 30 1016 N/A 0 0
8:54 am 08:54 undefined 76 24.4 70 21.1 82 82 undefined N/A 29.99 1016 N/A 0 0
9:54 am 09:54 undefined 82 27.8 71 21.7 69 69 undefined N/A 29.96 1015 N/A 0 0
10:54 am 10:54 undefined 86 30 70 21.1 59 59 undefined N/A 29.96 1014 N/A 0 0
11:54 am 11:54 undefined 90 32.2 71 21.7 54 54 undefined N/A 29.93 1014 N/A 0 0
12:54 pm 12:54 undefined 91 32.8 69 20.6 49 49 undefined N/A 29.91 1013 N/A 0 0
1:54 pm 13:54 undefined 94 34.4 68 20 43 43 undefined N/A 29.89 1012 N/A 0 0
2:54 pm 14:54 undefined 94 34.4 68 20 43 43 undefined N/A 29.88 1012 N/A 0 0
3:54 pm 15:54 undefined 93 33.9 68 20 44 44 undefined N/A 29.88 1012 N/A 0 0
4:54 pm 16:54 undefined 93 33.9 67 19.4 42 42 undefined N/A 29.87 1012 N/A 0 0
5:54 pm 17:54 undefined 92 33.3 68 20 46 46 undefined N/A 29.88 1012 N/A 0 0
6:54 pm 18:54 undefined 91 32.8 68 20 47 47 undefined N/A 29.89 1012 N/A 0 0
7:54 pm 19:54 undefined 89 31.7 69 20.6 52 52 undefined N/A 29.9 1013 N/A 0 0
8:54 pm 20:54 undefined 88 31.1 69 20.6 54 54 undefined N/A 29.91 1013 N/A 0 0
9:54 pm 21:54 undefined 86 30 67 19.4 53 53 undefined N/A 29.93 1014 N/A 0 0
10:54 pm 22:54 undefined 84 28.9 63 17.2 49 49 undefined N/A 29.95 1014 N/A 0 0
11:54 pm 23:54 undefined 83 28.3 62 16.7 49 49 undefined N/A 29.98 1015 N/A 0 0

Powered by AerisWeather